This is the latest recevied weather packets stored in our database for station/object DJ9MA-10. If no packets are shown the sender has not sent any weather packets the latest 1 day(s).
| Time | Temp. | Humidity | Pressure | Rain* | Wind** | Luminosity | Snow |
|---|---|---|---|---|---|---|---|
| 1778045372 | 17.78° C | 100% | 955.8 hPa | - | - | - | - |
| 1778044471 | 17.78° C | 100% | 956 hPa | - | - | - | - |
| 1778043571 | 17.78° C | 100% | 955.9 hPa | - | - | - | - |
| 1778042671 | 17.22° C | 100% | 955.9 hPa | - | - | - | - |
| 1778041771 | 17.22° C | 100% | 955.9 hPa | - | - | - | - |
| 1778040871 | 16.67° C | 100% | 956.1 hPa | - | - | - | - |
| 1778039070 | 16.67° C | 100% | 956.1 hPa | - | - | - | - |
| 1778038170 | 16.67° C | 100% | 956.3 hPa | - | - | - | - |
| 1778037270 | 17.22° C | 100% | 956.4 hPa | - | - | - | - |
| 1778036370 | 17.22° C | 100% | 956.6 hPa | - | - | - | - |
| 1778035470 | 17.22° C | 100% | 956.8 hPa | - | - | - | - |
| 1778034570 | 17.22° C | 100% | 956.4 hPa | - | - | - | - |
| 1778033670 | 17.22° C | 100% | 956.3 hPa | - | - | - | - |
| 1778032770 | 17.22° C | 100% | 956.5 hPa | - | - | - | - |
| 1778031870 | 17.78° C | 100% | 956.4 hPa | - | - | - | - |
| 1778030970 | 17.78° C | 100% | 956.7 hPa | - | - | - | - |
| 1778030070 | 17.78° C | 100% | 956.8 hPa | - | - | - | - |
| 1778029170 | 18.33° C | 100% | 956.7 hPa | - | - | - | - |
| 1778028270 | 18.33° C | 100% | 956.7 hPa | - | - | - | - |
| 1778027370 | 18.89° C | 100% | 956.8 hPa | - | - | - | - |
| 1778025570 | 18.89° C | 100% | 957 hPa | - | - | - | - |
| 1778013869 | 22.22° C | 100% | 957 hPa | - | - | - | - |
| 1778012969 | 21.67° C | 100% | 956.8 hPa | - | - | - | - |
| 1778012069 | 21.67° C | 100% | 956.6 hPa | - | - | - | - |
* Rain since midnight (hover to see other rain measurements)
** Current wind speed in m/s (hover to see current wind gust speed)